GW0175 Weather Reports


time (UTC)temp
F
wind
direction
speed
knots
gust
knots
rain 1hr
in
rain 24hr
in
rain mn
in
humidity
%
barometer
mb
20220629043916 76 209 0.0 1.7 0.00 0.00 0.00 65 1020.5
20220629043416 76 240 0.0 2.6 0.00 0.00 0.00 64 1020.2
20220629042915 76 191 1.7 2.6 0.00 0.00 0.00 63 1020.4
20220629042413 76 253 4.3 4.3 0.00 0.00 0.00 63 1020.3
20220629041912 76 164 2.6 6.1 0.00 0.00 0.00 63 1020.4
20220629041412 76 165 2.6 4.3 0.00 0.00 0.00 63 1020.4
20220629040910 76 167 4.3 6.1 0.00 0.00 0.00 63 1020.2
20220629040410 76 149 2.6 7.8 0.00 0.00 0.00 62 1020.1
20220629035908 76 159 2.6 6.1 0.00 0.00 0.00 62 1020.5
20220629035405 77 161 1.7 5.2 0.00 0.00 0.00 63 1020.1
20220629034904 76 156 3.5 6.1 0.00 0.00 0.00 63 1020.2
20220629034403 77 145 4.3 6.1 0.00 0.00 0.00 62 1020.3
20220629033902 76 152 2.6 3.5 0.00 0.00 0.00 63 1020.2
20220629033401 77 156 1.7 3.5 0.00 0.00 0.00 62 1019.8
20220629032900 77 152 4.3 5.2 0.00 0.00 0.00 61 1019.8
20220629032359 77 160 0.9 4.3 0.00 0.00 0.00 61 1019.7
20220629031858 77 153 4.3 5.2 0.00 0.00 0.00 60 1019.7
20220629031357 77 153 5.2 5.2 0.00 0.00 0.00 59 1019.5
20220629030855 78 162 0.0 4.3 0.00 0.00 0.00 58 1019.4
20220629030354 77 180 0.0 3.5 0.00 0.00 0.00 58 1019.5
20220629025853 78 117 1.7 4.3 0.00 0.00 0.00 57 1019.5
20220629025351 78 161 1.7 3.5 0.00 0.00 0.00 56 1019.6
20220629024850 78 112 0.0 4.3 0.00 0.00 0.00 55 1019.6
20220629024349 78 112 2.6 3.5 0.00 0.00 0.00 56 1019.2
20220629023848 78 156 3.5 7.8 0.00 0.00 0.00 56 1019.2
20220629023347 78 143 3.5 4.3 0.00 0.00 0.00 56 1019.3
20220629022847 78 144 2.6 3.5 0.00 0.00 0.00 55 1019.2
20220629022346 79 132 1.7 4.3 0.00 0.00 0.00 55 1019.1
20220629021845 79 151 4.3 4.3 0.00 0.00 0.00 55 1019.0
20220629021344 79 144 2.6 5.2 0.00 0.00 0.00 54 1018.9
20220629020844 79 90 1.7 5.2 0.00 0.00 0.00 54 1019.0
20220629020343 79 154 2.6 6.1 0.00 0.00 0.00 53 1018.8
20220629015843 79 129 1.7 4.3 0.00 0.00 0.00 52 1018.9
20220629015342 79 103 2.6 4.3 0.00 0.00 0.00 53 1018.8
20220629014842 79 115 0.0 6.1 0.00 0.00 0.00 53 1018.6
20220629014340 79 158 2.6 7.0 0.00 0.00 0.00 52 1018.5
20220629013839 80 99 1.7 5.2 0.00 0.00 0.00 52 1018.6
20220629013338 80 32 3.5 5.2 0.00 0.00 0.00 52 1018.3
20220629012837 80 87 2.6 6.1 0.00 0.00 0.00 52 1018.2
20220629012337 80 98 0.9 3.5 0.00 0.00 0.00 51 1018.3
20220629011835 80 97 3.5 7.8 0.00 0.00 0.00 50 1018.3
20220629011334 80 90 0.9 7.0 0.00 0.00 0.00 52 1018.5
20220629010832 80 99 2.6 5.2 0.00 0.00 0.00 52 1018.5
20220629010331 80 113 2.6 3.5 0.00 0.00 0.00 55 1018.2
20220629005831 79 77 0.9 9.6 0.00 0.00 0.00 55 1018.4
20220629005330 79 79 7.8 13.0 0.00 0.00 0.00 56 1018.2
20220629004829 79 93 11.3 16.5 0.00 0.00 0.00 54 1018.2
20220629004329 81 108 9.6 9.6 0.00 0.00 0.00 53 1018.1
20220629003828 81 90 0.0 12.2 0.00 0.00 0.00 52 1018.1
20220629003327 84 65 1.7 5.2 0.00 0.00 0.00 49 1017.9
20220629002826 84 23 0.0 2.6 0.00 0.00 0.00 49 1017.7
20220629002325 84 32 3.5 4.3 0.00 0.00 0.00 48 1017.9
20220629001823 83 3 2.6 4.3 0.00 0.00 0.00 49 1017.7
20220629001323 83 6 2.6 4.3 0.00 0.00 0.00 50 1017.4
20220629000822 83 357 2.6 4.3 0.00 0.00 0.00 48 1017.6
20220629000321 83 315 1.7 4.3 0.00 0.00 0.00 50 1017.7
20220628235820 84 350 2.6 3.5 0.00 0.00 0.00 50 1017.8
20220628235319 84 343 1.7 3.5 0.00 0.00 0.00 51 1017.7
20220628234818 83 321 2.6 5.2 0.00 0.00 0.00 49 1017.7
20220628234316 83 343 3.5 5.2 0.00 0.00 0.00 50 1017.9
20220628233815 83 345 4.3 5.2 0.00 0.00 0.00 50 1018.0
20220628233315 84 0 3.5 5.2 0.00 0.00 0.00 49 1018.2
20220628232816 84 0 1.7 4.3 0.00 0.00 0.00 52 1018.3
20220628232314 84 346 4.3 4.3 0.00 0.00 0.00 49 1018.2
20220628231814 84 14 2.6 4.3 0.00 0.00 0.00 49 1018.4
20220628231313 84 35 2.6 4.3 0.00 0.00 0.00 50 1018.5
20220628230812 84 357 6.1 6.1 0.00 0.00 0.00 50 1018.4
20220628230311 84 356 3.5 4.3 0.00 0.00 0.00 50 1018.5
20220628225810 84 352 2.6 3.5 0.00 0.00 0.00 48 1018.9
20220628225309 85 7 1.7 2.6 0.00 0.00 0.00 46 1018.6
20220628224807 84 8 3.5 4.3 0.00 0.00 0.00 48 1018.4
20220628224306 84 356 3.5 4.3 0.00 0.00 0.00 50 1018.6
20220628223806 84 2 2.6 5.2 0.00 0.00 0.00 48 1018.6
20220628223305 85 350 2.6 4.3 0.00 0.00 0.00 46 1018.4
20220628222804 85 27 4.3 5.2 0.00 0.00 0.00 45 1018.5
20220628222302 84 22 6.1 8.7 0.00 0.00 0.00 47 1018.2
20220628221802 85 349 6.1 7.8 0.00 0.00 0.00 46 1018.5
20220628221301 86 343 5.2 6.1 0.00 0.00 0.00 46 1018.6
20220628220802 87 337 4.3 7.8 0.00 0.00 0.00 44 1018.9
20220628220301 87 30 4.3 5.2 0.00 0.00 0.00 46 1018.8
20220628215801 87 0 4.3 8.7 0.00 0.00 0.00 47 1018.9
20220628215300 88 358 3.5 7.0 0.00 0.00 0.00 44 1019.0
20220628214759 87 343 3.5 3.5 0.00 0.00 0.00 41 1019.1
20220628214258 87 339 5.2 6.1 0.00 0.00 0.00 41 1018.9
20220628213757 87 285 0.9 6.1 0.00 0.00 0.00 41 1018.9
20220628213255 88 329 2.6 7.0 0.00 0.00 0.00 43 1019.2
20220628212754 88 42 6.1 9.6 0.00 0.00 0.00 43 1019.2
20220628212253 88 0 2.6 4.3 0.00 0.00 0.00 40 1019.1
20220628211753 89 123 1.7 2.6 0.00 0.00 0.00 39 1019.1
20220628211253 87 172 0.0 3.5 0.00 0.00 0.00 43 1019.1
20220628210752 87 206 1.7 4.3 0.00 0.00 0.00 43 1019.3
20220628210250 87 244 4.3 6.1 0.00 0.00 0.00 44 1019.3
20220628205750 87 344 0.0 3.5 0.00 0.00 0.00 45 1019.5
20220628205248 87 11 3.5 5.2 0.00 0.00 0.00 44 1019.3
20220628204747 87 185 0.0 7.8 0.00 0.00 0.00 44 1019.7
20220628204246 87 97 0.0 3.5 0.00 0.00 0.00 47 1019.6
20220628203746 86 0 2.6 2.6 0.00 0.00 0.00 45 1019.7
20220628203245 85 228 0.0 3.5 0.00 0.00 0.00 47 1020.0
20220628202743 87 258 1.7 3.5 0.00 0.00 0.00 45 1020.0
20220628202242 87 245 0.0 2.6 0.00 0.00 0.00 44 1020.0
20220628201742 87 352 6.1 6.1 0.00 0.00 0.00 49 1019.8
20220628201241 85 9 3.5 6.1 0.00 0.00 0.00 52 1020.2
20220628200740 84 0 3.5 5.2 0.00 0.00 0.00 51 1020.3
20220628200239 84 355 4.3 7.0 0.00 0.00 0.00 52 1020.3
20220628195737 84 329 7.0 7.0 0.00 0.00 0.00 52 1020.6
20220628195236 86 32 1.7 3.5 0.00 0.00 0.00 49 1020.6
20220628194735 83 356 1.7 3.5 0.00 0.00 0.00 50 1020.4
20220628194234 83 5 4.3 6.1 0.00 0.00 0.00 52 1020.7
20220628193733 84 18 1.7 5.2 0.00 0.00 0.00 54 1020.9
20220628193232 83 236 2.6 2.6 0.00 0.00 0.00 51 1020.6
20220628192731 83 203 2.6 4.3 0.00 0.00 0.00 52 1020.9
20220628192231 83 254 2.6 2.6 0.00 0.00 0.00 53 1020.8
20220628191729 82 348 4.3 8.7 0.00 0.00 0.00 54 1020.9
20220628191228 83 29 0.0 7.8 0.00 0.00 0.00 56 1021.4
20220628190727 83 180 0.9 1.7 0.00 0.00 0.00 52 1021.2
20220628190226 83 24 3.5 4.3 0.00 0.00 0.00 52 1021.3
20220628185726 82 57 2.6 5.2 0.00 0.00 0.00 53 1021.3
20220628185225 82 74 0.9 7.0 0.00 0.00 0.00 55 1021.5
20220628184724 84 86 2.6 2.6 0.00 0.00 0.00 52 1021.2
20220628184223 82 0 0.0 3.5 0.00 0.00 0.00 55 1021.6
20220628183721 82 350 2.6 4.3 0.00 0.00 0.00 54 1021.6
20220628183221 82 74 0.0 4.3 0.00 0.00 0.00 54 1021.7
20220628182720 82 326 4.3 4.3 0.00 0.00 0.00 58 1021.7
20220628182219 82 342 2.6 2.6 0.00 0.00 0.00 54 1021.6
20220628181718 82 47 2.6 4.3 0.00 0.00 0.00 56 1021.7
20220628181217 82 336 3.5 4.3 0.00 0.00 0.00 56 1021.8
20220628180717 82 10 2.6 4.3 0.00 0.00 0.00 55 1021.6
20220628180216 81 15 1.7 3.5 0.00 0.00 0.00 58 1022.0
20220628175715 79 346 2.6 6.1 0.00 0.00 0.00 60 1021.8
20220628175215 78 45 2.6 6.1 0.00 0.00 0.00 61 1022.1
20220628174714 79 10 4.3 7.0 0.00 0.00 0.00 60 1022.0
20220628174213 80 26 0.9 4.3 0.00 0.00 0.00 60 1022.0
20220628173711 78 357 2.6 5.2 0.00 0.00 0.00 63 1022.3
20220628173209 80 7 4.3 4.3 0.00 0.00 0.00 61 1022.5
20220628172708 79 30 3.5 6.1 0.00 0.00 0.00 60 1022.5
20220628172206 81 21 2.6 6.1 0.00 0.00 0.00 58 1022.4
20220628171706 79 257 1.7 2.6 0.00 0.00 0.00 60 1022.4
20220628171204 79 0 0.0 2.6 0.00 0.00 0.00 61 1022.4
20220628170703 78 317 3.5 4.3 0.00 0.00 0.00 64 1022.3
20220628170202 77 319 1.7 6.1 0.00 0.00 0.00 63 1022.6
20220628165700 77 15 4.3 4.3 0.00 0.00 0.00 65 1022.6
20220628165200 77 345 4.3 6.1 0.00 0.00 0.00 64 1022.6
20220628164659 77 48 1.7 5.2 0.00 0.00 0.00 64 1022.6
20220628164159 78 5 4.3 6.1 0.00 0.00 0.00 65 1022.5
20220628163657 77 21 2.6 5.2 0.00 0.00 0.00 63 1022.8
20220628163157 76 23 4.3 6.1 0.00 0.00 0.00 65 1022.8
20220628162656 77 41 3.5 3.5 0.00 0.00 0.00 65 1022.5
20220628162155 76 6 3.5 5.2 0.00 0.00 0.00 64 1022.8
20220628161654 78 277 0.0 5.2 0.00 0.00 0.00 61 1022.8
20220628161152 77 20 3.5 7.0 0.00 0.00 0.00 66 1022.9
20220628160651 78 82 0.9 4.3 0.00 0.00 0.00 64 1022.9
20220628160149 77 48 1.7 6.1 0.00 0.00 0.00 66 1022.9
20220628155648 76 41 1.7 7.8 0.00 0.00 0.00 69 1023.2
20220628155146 75 11 3.5 5.2 0.00 0.00 0.00 66 1023.0
20220628154647 78 30 3.5 4.3 0.00 0.00 0.00 64 1022.9
20220628154146 78 49 2.6 3.5 0.00 0.00 0.00 63 1023.0
20220628153646 76 70 2.6 5.2 0.00 0.00 0.00 67 1022.9
20220628153146 76 34 4.3 7.0 0.00 0.00 0.00 69 1023.0
20220628152645 75 5 6.1 8.7 0.00 0.00 0.00 69 1022.9
20220628152144 77 55 4.3 7.0 0.00 0.00 0.00 67 1023.0
20220628151642 77 30 7.8 8.7 0.00 0.00 0.00 66 1023.1
20220628151142 76 25 5.2 8.7 0.00 0.00 0.00 69 1023.0
20220628150641 75 38 5.2 7.8 0.00 0.00 0.00 69 1022.9
20220628150141 75 343 3.5 6.1 0.00 0.00 0.00 69 1022.8
20220628145639 75 32 6.1 7.0 0.00 0.00 0.00 69 1022.9
20220628145140 75 26 3.5 6.1 0.00 0.00 0.00 71 1022.8
20220628144638 74 13 6.1 7.8 0.00 0.00 0.00 72 1022.9
20220628144138 73 5 6.1 7.8 0.00 0.00 0.00 73 1023.2
20220628143637 73 26 3.5 7.0 0.00 0.00 0.00 75 1023.1
20220628143137 73 4 6.1 7.0 0.00 0.00 0.00 75 1023.1
20220628142635 73 355 5.2 7.0 0.00 0.00 0.00 75 1022.9
20220628142135 73 0 2.6 4.3 0.00 0.00 0.00 72 1022.7
20220628141635 72 0 0.0 2.6 0.00 0.00 0.00 76 1022.7
20220628141134 72 45 1.7 1.7 0.00 0.00 0.00 77 1022.5
20220628140633 72 123 1.7 2.6 0.00 0.00 0.00 77 1022.5
20220628140132 72 103 2.6 5.2 0.00 0.00 0.00 78 1022.7
20220628135632 72 96 2.6 6.1 0.00 0.00 0.00 78 1022.5
20220628135131 72 104 3.5 7.0 0.00 0.00 0.00 78 1022.4
20220628134629 73 106 1.7 2.6 0.00 0.00 0.00 79 1022.6
20220628134129 71 117 2.6 5.2 0.00 0.00 0.00 80 1022.6
20220628133629 71 104 4.3 6.1 0.00 0.00 0.00 80 1022.5
20220628133129 71 113 2.6 5.2 0.00 0.00 0.00 81 1022.6
20220628132628 71 82 0.0 2.6 0.00 0.00 0.00 81 1022.6
20220628132127 70 112 1.7 4.3 0.00 0.00 0.00 84 1022.3
20220628131627 71 90 0.0 3.5 0.00 0.00 0.00 83 1022.5
20220628131127 70 84 0.0 4.3 0.00 0.00 0.00 85 1022.3
20220628130626 69 61 1.7 3.5 0.00 0.00 0.00 85 1022.3
20220628130125 69 59 1.7 3.5 0.00 0.00 0.00 85 1022.3
20220628125624 69 71 0.0 2.6 0.00 0.00 0.00 87 1022.1
20220628125123 68 34 1.7 2.6 0.00 0.00 0.00 89 1021.9
20220628124622 67 74 0.0 2.6 0.00 0.00 0.00 90 1022.4
20220628124122 66 81 0.0 1.7 0.00 0.00 0.00 93 1021.9
20220628123620 65 90 0.0 2.6 0.00 0.00 0.00 95 1022.1
20220628123120 64 90 0.0 3.5 0.00 0.00 0.00 95 1022.0
20220628122619 64 96 0.0 2.6 0.00 0.00 0.00 95 1022.1
20220628122120 64 19 0.0 1.7 0.00 0.00 0.00 95 1021.9
20220628121618 64 99 0.0 0.0 0.00 0.00 0.00 95 1022.0
20220628121117 63 90 0.0 0.0 0.00 0.00 0.00 95 1021.8
20220628120616 64 29 0.9 1.7 0.00 0.00 0.00 95 1021.9
20220628120116 64 82 0.9 1.7 0.00 0.00 0.00 94 1021.8
20220628115615 64 78 1.7 1.7 0.00 0.00 0.00 94 1021.8
20220628115114 64 69 0.0 1.7 0.00 0.00 0.00 94 1021.6
20220628114613 64 111 2.6 2.6 0.00 0.00 0.00 93 1021.8
20220628114113 64 84 1.7 1.7 0.00 0.00 0.00 93 1021.5
20220628113612 64 6 0.0 2.6 0.00 0.00 0.00 93 1021.8
20220628113112 65 74 1.7 2.6 0.00 0.00 0.00 92 1021.9
20220628112610 65 90 0.9 1.7 0.00 0.00 0.00 91 1021.8
20220628112110 66 90 0.0 1.7 0.00 0.00 0.00 89 1021.7
20220628111608 66 159 0.0 1.7 0.00 0.00 0.00 88 1021.6
20220628111107 67 174 0.9 3.5 0.00 0.00 0.00 87 1021.5
20220628110607 67 199 2.6 2.6 0.00 0.00 0.00 87 1021.4
20220628110106 67 167 2.6 4.3 0.00 0.00 0.00 86 1021.7
20220628105604 67 133 2.6 2.6 0.00 0.00 0.00 87 1021.6
20220628105102 67 158 2.6 4.3 0.00 0.00 0.00 87 1021.8
20220628104601 67 230 0.0 2.6 0.00 0.00 0.00 87 1021.8
20220628104100 67 130 2.6 6.1 0.00 0.00 0.00 86 1021.9
20220628103559 68 157 2.6 5.2 0.00 0.00 0.00 86 1022.0
20220628103057 67 161 2.6 6.1 0.00 0.00 0.00 88 1021.8
20220628102557 67 157 4.3 5.2 0.00 0.00 0.00 88 1021.9
20220628102056 67 154 2.6 4.3 0.00 0.00 0.00 88 1021.9
20220628101556 67 127 1.7 6.1 0.00 0.00 0.00 88 1021.9
20220628101055 67 146 4.3 4.3 0.00 0.00 0.00 89 1021.9
20220628100554 67 151 2.6 3.5 0.00 0.00 0.00 89 1021.7
20220628100053 66 152 1.7 2.6 0.00 0.00 0.00 88 1021.7
20220628095551 66 140 1.7 2.6 0.00 0.00 0.00 88 1021.9
20220628095050 66 120 1.7 1.7 0.00 0.00 0.00 88 1021.6
20220628094550 66 150 1.7 1.7 0.00 0.00 0.00 88 1021.8
20220628094050 66 120 0.9 2.6 0.00 0.00 0.00 87 1021.7
20220628093548 67 154 0.0 1.7 0.00 0.00 0.00 87 1021.7
20220628093047 67 90 0.0 0.9 0.00 0.00 0.00 86 1021.8
20220628092548 67 139 0.0 1.7 0.00 0.00 0.00 86 1022.0
20220628092047 66 81 0.0 3.5 0.00 0.00 0.00 87 1021.8
20220628091546 66 106 0.9 1.7 0.00 0.00 0.00 87 1021.8
20220628091046 66 165 0.0 0.0 0.00 0.00 0.00 85 1021.7
20220628090544 67 165 0.0 0.0 0.00 0.00 0.00 85 1021.9
20220628090043 67 180 0.0 0.9 0.00 0.00 0.00 85 1021.8
20220628085541 67 114 0.0 0.9 0.00 0.00 0.00 85 1021.9
20220628085041 67 126 0.0 1.7 0.00 0.00 0.00 84 1021.8
20220628084540 67 172 0.0 1.7 0.00 0.00 0.00 84 1021.8
20220628084039 68 188 1.7 2.6 0.00 0.00 0.00 84 1022.0
20220628083537 67 180 0.0 1.7 0.00 0.00 0.00 84 1021.8
20220628083037 67 198 0.0 2.6 0.00 0.00 0.00 83 1022.3
20220628082536 67 180 0.0 2.6 0.00 0.00 0.00 83 1021.9
20220628082035 68 200 0.9 1.7 0.00 0.00 0.00 84 1022.1
20220628081533 67 254 0.9 1.7 0.00 0.00 0.00 83 1021.9
20220628081033 68 175 0.9 2.6 0.00 0.00 0.00 83 1021.9
20220628080532 67 200 0.9 2.6 0.00 0.00 0.00 83 1022.0
20220628080031 67 221 0.0 2.6 0.00 0.00 0.00 83 1021.7
20220628075531 68 239 1.7 4.3 0.00 0.00 0.00 83 1022.0
20220628075029 68 215 0.9 2.6 0.00 0.00 0.00 81 1022.0
20220628074528 68 206 0.9 2.6 0.00 0.00 0.00 81 1021.9
20220628074028 68 180 0.0 3.5 0.00 0.00 0.00 81 1022.1
20220628073527 68 243 1.7 3.5 0.00 0.00 0.00 81 1022.3
20220628073026 68 180 0.0 2.6 0.00 0.00 0.00 80 1022.3
20220628072526 68 162 0.9 2.6 0.00 0.00 0.00 80 1022.3
20220628072025 69 202 1.7 1.7 0.00 0.00 0.00 78 1022.5
20220628071524 69 166 3.5 5.2 0.00 0.00 0.00 77 1022.3
20220628071024 69 156 1.7 2.6 0.00 0.00 0.00 79 1022.4
20220628070522 69 198 0.9 1.7 0.00 0.00 0.00 78 1022.4
20220628070021 69 156 1.7 2.6 0.00 0.00 0.00 78 1022.1
20220628065520 69 166 1.7 3.5 0.00 0.00 0.00 77 1022.3
20220628065020 69 160 2.6 4.3 0.00 0.00 0.00 76 1022.3
20220628064518 70 157 2.6 5.2 0.00 0.00 0.00 75 1022.4
20220628064018 70 125 1.7 3.5 0.00 0.00 0.00 74 1022.3
20220628063518 70 168 2.6 4.3 0.00 0.00 0.00 74 1022.6
20220628063018 70 161 1.7 2.6 0.00 0.00 0.00 73 1022.6
20220628062517 70 120 1.7 3.5 0.00 0.00 0.00 72 1022.5
20220628062016 71 159 1.7 4.3 0.00 0.00 0.00 72 1022.5
20220628061515 71 166 4.3 4.3 0.00 0.00 0.00 71 1022.5
20220628061014 71 158 7.8 7.8 0.00 0.00 0.00 71 1022.4
20220628060512 71 161 3.5 5.2 0.00 0.00 0.00 74 1022.3
20220628060011 71 144 5.2 7.0 0.00 0.00 0.00 75 1022.3
20220628055510 71 138 4.3 4.3 0.00 0.57 0.57 76 1022.5
20220628055009 72 131 2.6 7.8 0.00 0.57 0.57 75 1022.5
20220628054509 72 161 1.7 6.1 0.00 0.57 0.57 75 1022.3
20220628054008 72 141 4.3 6.1 0.00 0.57 0.57 74 1022.4
20220628053508 72 156 3.5 6.1 0.00 0.57 0.57 73 1022.4
20220628053008 73 180 2.6 8.7 0.00 0.57 0.57 71 1022.1
20220628052506 73 142 2.6 9.6 0.00 0.57 0.57 70 1022.1
20220628052006 73 124 5.2 6.1 0.00 0.57 0.57 69 1022.3
20220628051504 74 144 4.3 5.2 0.00 0.57 0.57 68 1022.3
20220628051003 73 156 3.5 7.0 0.00 0.57 0.57 69 1022.4
20220628050502 73 147 2.6 5.2 0.00 0.57 0.57 71 1022.0
20220628050001 74 120 2.6 7.0 0.00 0.57 0.57 71 1022.1
20220628045500 74 165 2.6 7.0 0.00 0.57 0.57 73 1022.0
20220628045000 72 170 2.6 5.2 0.00 0.57 0.57 82 1021.7
20220628044458 72 166 2.6 2.6 0.00 0.57 0.57 84 1021.5